Location: Berg
(47.2344°N, 9.5296°E)
Time: 12:09:48
(UTC+00:00)

AAUSAT CUBESAT 2 - Pass Details

Date: 05 December 2021
Orbit: 571 x 586 km, 97.5° (Epoch: 20 January)

Event Time Altitude Azimuth Distance (km) Brightness Sun altitude
Rises 05:32:43 0° 2° (N) 2,798 ? -13.0°
Reaches altitude 10° 05:35:08 10° 349° (N) 1,897 ? -12.6°
Maximum altitude 05:38:31 25° 294° (WNW) 1,172 ? -12.0°
Drops below altitude 10° 05:41:55 10° 238° (WSW) 1,892 ? -11.5°
Sets 05:44:19 0° 225° (SW) 2,790 ? -11.1°
